Date String (YYYY-MM-DD hh:mm:ss) UTC,Instrument flags,Ambient pressure (hPa),Sample flow (lpm),Bypass flow (lpm),Sample temperature (°C),Ambient temperature (°C),ASC tube jacket temperature (°C),LED temperature (°C),Box temperature (°C),Sample RH (%),Span deviation,Mass concentration (μg/m³),Mass concentration (μg/m³),Mass concentration (μg/m³)
DateTimeUTC,F1_M11,P_M11,Q1_M11,Q2_M11,T1_M11,T2_M11,T3_M11,T4_M11,T5_M11,U1_M11,ZSPAN_M11,X0_M11,X2_M11,X1_M11
2022-05-10 09:00:00,,0823.5,5.00,0.00,26.5,25.6,00.0,35.6,28.3,14.1,0000.0,0017.04,0005.50,0002.15
2022-05-10 09:01:00,,0823.6,5.01,0.00,26.5,25.6,00.0,35.5,28.3,14.2,0000.0,0017.71,0005.49,0002.14
2022-05-10 09:02:00,,0823.6,5.01,0.00,26.5,25.6,00.0,35.5,28.3,14.1,0000.0,0018.34,0005.51,0002.12
2022-05-10 09:03:00,,0823.6,5.01,0.00,26.5,25.6,00.0,35.5,28.3,14.1,0000.0,0018.29,0005.51,0002.14
2022-05-10 09:04:00,,0823.6,5.00,0.00,26.4,25.5,00.0,35.5,28.2,14.1,0000.0,0019.63,0005.53,0002.16
2022-05-10 09:05:00,,0823.7,4.99,0.00,26.4,25.5,00.0,35.5,28.2,14.2,0000.0,0019.39,0005.50,0002.15
2022-05-10 09:06:00,,0823.7,5.00,0.00,26.4,25.5,00.0,35.5,28.2,14.2,0000.0,0019.66,0005.42,0002.14
2022-05-10 09:07:00,,0823.6,4.99,0.00,26.4,25.5,00.0,35.5,28.2,14.2,0000.0,0019.35,0005.38,0002.12
2022-05-10 09:08:00,,0823.7,5.01,0.00,26.4,25.5,00.0,35.5,28.2,14.3,0000.0,0019.71,0005.38,0002.13
2022-05-10 09:09:00,,0823.7,4.99,0.00,26.4,25.5,00.0,35.5,28.2,14.2,0000.0,0020.67,0005.52,0002.16
2022-05-10 09:10:00,,0823.8,5.01,0.00,26.4,25.5,00.0,35.4,28.2,14.4,0000.0,0021.06,0005.59,0002.20
2022-05-10 09:11:00,,0823.8,5.01,0.00,26.4,25.5,00.0,35.4,28.2,14.3,0000.0,0020.50,0005.61,0002.20
2022-05-10 09:12:00,,0823.8,5.00,0.00,26.4,25.5,00.0,35.4,28.2,14.3,0000.0,0020.17,0005.68,0002.19
2022-05-10 09:13:00,,0823.8,5.01,0.00,26.3,25.4,00.0,35.4,28.2,14.3,0000.0,0019.32,0005.72,0002.21
2022-05-10 09:14:00,,0823.8,5.00,0.00,26.3,25.4,00.0,35.4,28.2,14.3,0000.0,0019.30,0005.76,0002.23
2022-05-10 09:15:00,,0823.8,4.99,0.00,26.3,25.4,00.0,35.4,28.1,14.2,0000.0,0018.12,0005.78,0002.24
2022-05-10 09:16:00,,0823.8,5.00,0.00,26.3,25.4,00.0,35.4,28.1,14.1,0000.0,0017.79,0005.71,0002.23
2022-05-10 09:17:00,,0823.9,5.02,0.00,26.3,25.4,00.0,35.4,28.1,14.1,0000.0,0016.96,0005.76,0002.23
2022-05-10 09:18:00,,0823.9,5.00,0.00,26.3,25.3,00.0,35.4,28.1,14.0,0000.0,0017.09,0005.85,0002.24
2022-05-10 09:19:00,,0823.9,5.00,0.00,26.3,25.4,00.0,35.4,28.1,14.2,0000.0,0017.73,0005.85,0002.22
2022-05-10 09:20:00,,0823.9,5.00,0.00,26.3,25.3,00.0,35.4,28.1,14.0,0000.0,0016.83,0005.73,0002.20
2022-05-10 09:21:00,,0823.9,5.00,0.00,26.3,25.4,00.0,35.4,28.1,14.0,0000.0,0016.67,0005.69,0002.16
2022-05-10 09:22:00,,0824.0,4.99,0.00,26.3,25.4,00.0,35.3,28.1,13.9,0000.0,0016.78,0005.67,0002.14
2022-05-10 09:23:00,,0824.0,4.99,0.00,26.3,25.4,00.0,35.3,28.1,13.9,0000.0,0016.75,0005.62,0002.13
2022-05-10 09:24:00,,0824.1,5.00,0.00,26.3,25.4,00.0,35.3,28.1,13.8,0000.0,0016.75,0005.50,0002.12
2022-05-10 09:25:00,,0824.1,5.00,0.00,26.3,25.4,00.0,35.3,28.1,13.9,0000.0,0016.54,0005.44,0002.11
2022-05-10 09:26:00,,0824.1,4.99,0.00,26.3,25.4,00.0,35.3,28.1,13.8,0000.0,0016.96,0005.44,0002.10
2022-05-10 09:27:00,,0824.1,5.01,0.00,26.3,25.4,00.0,35.3,28.1,13.8,0000.0,0017.44,0005.48,0002.10
2022-05-10 09:28:00,,0824.1,4.99,0.00,26.3,25.5,00.0,35.3,28.1,13.8,0000.0,0017.67,0005.42,0002.08
2022-05-10 09:29:00,,0824.0,5.01,0.00,26.3,25.5,00.0,35.3,28.1,13.8,0000.0,0017.84,0005.39,0002.06
2022-05-10 09:30:00,,0824.1,4.99,0.00,26.3,25.5,00.0,35.3,28.1,13.7,0000.0,0016.94,0005.41,0002.06
2022-05-10 09:31:00,,0824.0,5.01,0.00,26.3,25.6,00.0,35.3,28.2,13.6,0000.0,0016.89,0005.42,0002.06
2022-05-10 09:32:00,,0824.1,4.98,0.00,26.3,25.6,00.0,35.3,28.2,13.5,0000.0,0016.80,0005.41,0002.05
2022-05-10 09:33:00,,0824.1,5.02,0.00,26.4,25.7,00.0,35.3,28.2,13.5,0000.0,0016.62,0005.46,0002.06
2022-05-10 09:34:00,,0824.1,4.99,0.00,26.4,25.7,00.0,35.3,28.2,13.5,0000.0,0016.14,0005.45,0002.05
2022-05-10 09:35:00,,0824.1,5.01,0.00,26.4,25.7,00.0,35.3,28.3,13.5,0000.0,0015.92,0005.41,0002.03
2022-05-10 09:36:00,,0824.1,4.99,0.00,26.4,25.7,00.0,35.3,28.3,13.7,0000.0,0016.01,0005.40,0002.00
2022-05-10 09:37:00,,0824.1,5.00,0.00,26.4,25.8,00.0,35.3,28.3,13.7,0000.0,0015.99,0005.41,0002.00
2022-05-10 09:38:00,,0824.1,5.00,0.00,26.4,25.8,00.0,35.3,28.3,13.7,0000.0,0015.26,0005.38,0001.98
2022-05-10 09:39:00,,0824.2,5.00,0.00,26.5,25.8,00.0,35.4,28.4,13.6,0000.0,0015.48,0005.41,0001.99
2022-05-10 09:40:00,,0824.1,5.01,0.00,26.5,25.9,00.0,35.4,28.4,13.6,0000.0,0015.65,0005.37,0001.98
2022-05-10 09:41:00,,0824.1,4.99,0.00,26.5,25.9,00.0,35.4,28.4,14.2,0000.0,0016.46,0005.29,0001.98
2022-05-10 09:42:00,,0824.1,5.01,0.00,26.5,25.9,00.0,35.4,28.4,14.3,0000.0,0016.51,0005.30,0001.97
2022-05-10 09:43:00,,0824.2,4.99,0.00,26.5,25.9,00.0,35.4,28.4,14.5,0000.0,0016.98,0005.29,0001.97
2022-05-10 09:44:00,,0824.2,5.01,0.00,26.6,26.0,00.0,35.4,28.5,14.5,0000.0,0017.21,0005.21,0001.98
2022-05-10 09:45:00,,0824.2,5.01,0.00,26.6,26.0,00.0,35.4,28.5,14.6,0000.0,0017.14,0005.22,0001.98
2022-05-10 09:46:00,,0824.2,4.99,0.00,26.6,26.0,00.0,35.4,28.5,14.4,0000.0,0017.31,0005.28,0002.02
2022-05-10 09:47:00,,0824.2,5.02,0.00,26.6,26.0,00.0,35.4,28.5,14.5,0000.0,0017.79,0005.35,0002.05
2022-05-10 09:48:00,,0824.2,5.00,0.00,26.6,26.0,00.0,35.5,28.5,14.4,0000.0,0017.86,0005.32,0002.04
2022-05-10 09:49:00,,0824.3,4.98,0.00,26.6,26.1,00.0,35.5,28.6,14.2,0000.0,0017.90,0005.31,0002.04
2022-05-10 09:50:00,,0824.3,5.02,0.00,26.7,26.1,00.0,35.5,28.6,14.2,0000.0,0017.57,0005.30,0002.04
2022-05-10 09:51:00,,0824.3,5.00,0.00,26.7,26.1,00.0,35.5,28.6,14.3,0000.0,0016.79,0005.25,0002.04
2022-05-10 09:52:00,,0824.3,4.99,0.00,26.7,26.1,00.0,35.5,28.6,14.3,0000.0,0015.60,0005.30,0002.04
2022-05-10 09:53:00,,0824.3,5.01,0.00,26.7,26.1,00.0,35.5,28.6,14.2,0000.0,0015.67,0005.23,0002.05
2022-05-10 09:54:00,,0824.3,5.01,0.00,26.7,26.1,00.0,35.5,28.6,14.0,0000.0,0015.89,0005.19,0002.04
2022-05-10 09:55:00,,0824.4,4.99,0.00,26.7,26.1,00.0,35.6,28.7,13.9,0000.0,0015.93,0005.19,0002.04
2022-05-10 09:56:00,,0824.4,5.00,0.00,26.8,26.2,00.0,35.6,28.7,14.0,0000.0,0016.01,0005.16,0002.04
2022-05-10 09:57:00,,0824.6,5.00,0.00,26.8,26.2,00.0,35.6,28.7,14.1,0000.0,0016.07,0005.17,0002.03
2022-05-10 09:58:00,,0824.5,5.01,0.00,26.8,26.2,00.0,35.6,28.7,14.2,0000.0,0015.66,0005.14,0002.02
2022-05-10 09:59:00,,0824.4,4.99,0.00,26.8,26.2,00.0,35.6,28.7,14.1,0000.0,0015.57,0005.09,0002.02
